Regional Weather Roundup
Issued by NWS Burlington, VT

Home | Current Version | Previous Version | Text Only | Print | Product List | Glossary On
Versions: 1 2 3 4 5 6 7 8 9 10 11 12 13 14 15 16 17 18 19 20 21 22 23 24 25 26 27 28 29 30 31 32 33 34 35 36 37 38 39 40 41 42 43 44 45 46 47 48 49 50
000
ASUS41 KBTV 210510
RWRBTV
VERMONT REGIONAL WEATHER ROUNDUP
NATIONAL WEATHER SERVICE BURLINGTON VT
100 AM EDT MON APR 21 2014

NOTE: "FAIR" INDICATES FEW OR NO CLOUDS BELOW 12,000 FEET WITH NO
SIGNIFICANT WEATHER AND/OR OBSTRUCTIONS TO VISIBILITY.

* THESE REPORTS ARE NOT UNDER NWS QUALITY CONTROL AND/OR DO NOT
  REPORT WEATHER SUCH AS PRECIPITATION AND FOG.

VTZ001>019-210600-
_____VERMONT_____


CITY           SKY/WX    TMP DP  RH WIND       PRES   REMARKS
BURLINGTON     MOCLDY    54  21  27 S10G17    30.17F
MONTPELIER     CLEAR     44  18  35 CALM      30.24F
MORRISVILLE    MOCLDY    36  27  69 S6        30.19F
ST. JOHNSBURY*   N/A     36  24  62 MISG      30.20F
LYNDONVILLE*   MOCLDY    44  16  31 S7        30.22F
MIDDLEBURY*    FAIR      53  20  27 SE6       30.22S
RUTLAND*       CLEAR     41  21  45 SE10      30.23F
SPRINGFIELD    CLEAR     35  25  66 CALM      30.26F
HIGHGATE*      FAIR      56  20  24 S7        30.15F
NEWPORT*       CLOUDY    49  14  25 S8        30.19S
BENNINGTON     CLEAR     45  22  40 CALM      30.24F
SUTTON*          N/A     43 N/A N/A MISG        N/A

_____LAKE CHAMPLAIN_____


CITY           SKY/WX    TMP DP  RH WIND       PRES   REMARKS
COLCHESTER RF*   N/A     46  32  57 SW17        N/A
DIAMOND ISL*     N/A     50  28  43 S12         N/A

$$

NYZ007-026>031-035-052-083-210600-
_____NORTHERN NEW YORK_____


CITY           SKY/WX    TMP DP  RH WIND       PRES   REMARKS
PLATTSBURGH    MOCLDY    46  28  49 E3        30.15F
SARANAC LAKE   PTCLDY    44  21  40 SW6       30.15F
MASSENA        MOCLDY    44  36  73 CALM      30.15F
OGDENSBURG*    CLEAR     45  37  76 CALM      30.14F
POTSDAM*       PTCLDY    48  27  43 SW3       30.14F
WATERTOWN      FAIR      44  32  62 N3        30.14F
FT DRUM        CLOUDY    52  30  43 SE10      30.14F
ALBANY         CLEAR     48  23  37 S12       30.26F
GLENS FALLS    PTCLDY    51  27  39 S5        30.23F

$$
NHZ002-005-011-210600-
_____NEW HAMPSHIRE_____


CITY           SKY/WX    TMP DP  RH WIND       PRES   REMARKS
LEBANON        CLEAR     37  24  59 NE7       30.24F
KEENE          CLEAR     39  25  56 CALM      30.30F
MT WASHINGTON  MOCLDY    32  21  64 W26         N/A
PLYMOUTH         N/A     34  29  82 CALM      30.27F
WHITEFIELD     CLEAR     31  24  75 CALM      30.21F

$$

_____REGIONAL QUEBEC LOCATIONS_____


CITY           SKY/WX    TMP DP  RH WIND       PRES   REMARKS
MONTREAL       CLOUDY    50  25  37 SE3       30.13F
QUEBEC CITY    CLOUDY    39  21  48 NE3       30.16F
SHERBROOKE     CLOUDY    39  28  65 NE2       30.15F

_____REGIONAL ONTARIO LOCATIONS_____


CITY           SKY/WX    TMP DP  RH WIND       PRES   REMARKS
OTTAWA         LGT RAIN  50  27  40 E3        30.12F

______KEY______
VSB  - VISIBILITY IN MILES
WCI  - WIND CHILL INDEX
HX   - HEAT INDEX
$$
NNNN



USA.gov is the U.S. government's official web portal to all federal, state and local government web resources and services.